Retour au catalogue

STARLINK-32434

ActifCommunicationsVLEO
NORAD 61913·PAYLOAD·🇺🇸 United States

Lancé Nov 11, 2024 depuis Cape Canaveral Space Force Station

Loading…

Prochains Passages (prochaines 24 heures)

TLE

FraisSource: CelesTrak SupGP

Époque: Sep 14, 2026, 21:31 UTC

1 61913C 24207B   26257.89701389  .00000879  00000+0  31829-4 0  2579
2 61913  43.0026 293.5131 0001438 268.9584 150.3534 15.27571244    19

Suivez STARLINK-32434 en temps réel avec AllMySat

Download on the App Store